Change the Weather History Date:

Thursday, January 23, 2014

  Actual Average Record
Temperature  
Mean Temperature 34 °F -  
Max Temperature 44 °F 36 °F 44 °F (2014)
Min Temperature 25 °F 18 °F 8 °F (2002)
Degree Days  
Heating Degree Days 30    
Moisture  
Dew Point 28 °F    
Average Humidity 78    
Maximum Humidity 100    
Minimum Humidity 42    
Precipitation  
Precipitation 0.04 in 0.04 in - ()
Sea Level Pressure  
Sea Level Pressure 29.99 in    
Wind  
Wind Speed 5 mph ()    
Max Wind Speed 16 mph    
Max Gust Speed -    
Visibility 3.5 miles    
Events Rain , Snow    
Averages and records for this station are not official NWS values.
T = Trace of Precipitation, MM = Missing Value Source: Averaged Metar Reports

Daily Weather History Graph

Daily Weather History Graph

Search for Another Location

Airport or City:

Trip Planner

Search our weather history database for the weather conditions in past years. The results will help you decide how hot, cold, wet, or windy it might be!

Date:

Astronomy

Jan. 23, 2014 Rise Set
Actual Time 6:18 AM EET 4:18 PM EET
Civil Twilight 5:50 AM EET 4:46 PM EET
Nautical Twilight 5:18 AM EET 5:19 PM EET
Astronomical Twilight 4:46 AM EET 5:50 PM EET
Moon 11:23 PM EET (1/23) 9:46 AM EET (1/23)
Length of Visible Light 10h 56m
Length of Day
9h 59m
Waning Gibbous, 58% of the Moon is Illuminated
Jan 23
Waning Gibbous
Jan 24
Last Quarter
Jan 30
New
Feb 6
First Quarter
Feb 15
Full

Hourly Weather History & Observations

Time (EET) Temp. Windchill Dew Point Humidity Pressure Visibility Wind Dir Wind Speed Gust Speed Precip Events Conditions
12:50 AM 28.4 °F - 26.6 °F 93% 30.04 in 3.7 mi Variable 2.3 mph - N/A   Mostly Cloudy
1:50 AM 28.4 °F - 26.6 °F 93% 30.01 in 3.7 mi Variable 1.2 mph - N/A   Mostly Cloudy
2:00 AM 28 °F - 27 °F 94%  in 4 mi ENE 1.2 mph - -   Mist
2:50 AM 26.6 °F - 24.8 °F 93% 30.01 in 3.7 mi Calm Calm - N/A   Mostly Cloudy
3:50 AM 32.0 °F 27.5 °F 26.6 °F 80% 29.98 in 3.7 mi SE 4.6 mph - N/A   Mostly Cloudy
4:50 AM 35.6 °F 27.1 °F 24.8 °F 65% 29.98 in 3.7 mi SSE 12.7 mph - N/A   Mostly Cloudy
5:00 AM 36 °F - 23 °F 46%  in 4 mi SSE 12.7 mph - -   Haze
5:50 AM 35.6 °F 27.5 °F 23.0 °F 60% 29.98 in 3.7 mi South 11.5 mph - N/A   Mostly Cloudy
6:50 AM 35.6 °F 28.6 °F 21.2 °F 56% 29.98 in 5.0 mi SE 9.2 mph - N/A   Mostly Cloudy
7:50 AM 37.4 °F 29.8 °F 23.0 °F 56% 29.98 in 5.0 mi SSE 11.5 mph - N/A   Mostly Cloudy
8:00 AM 37 °F - 22 °F 42%  in 5 mi SSE 11.5 mph - -   Haze
8:50 AM 39.2 °F 30.5 °F 23.0 °F 52% 29.98 in 5.0 mi South 16.1 mph - N/A   Mostly Cloudy
9:50 AM 39.2 °F 32.0 °F 24.8 °F 56% 29.98 in 5.0 mi SSE 11.5 mph - N/A   Mostly Cloudy
10:50 AM 41.0 °F 35.2 °F 26.6 °F 57% 29.95 in 5.0 mi SSE 9.2 mph - N/A   Mostly Cloudy
11:00 AM 40 °F - 26 °F 46%  in 5 mi SSE 8.1 mph - -   Haze
11:50 AM 41.0 °F 34.3 °F 26.6 °F 57% 29.95 in 5.0 mi South 11.5 mph - N/A   Mostly Cloudy
12:50 PM 42.8 °F 38.0 °F 26.6 °F 53% 29.92 in 5.0 mi South 8.1 mph - N/A   Mostly Cloudy
1:50 PM 42.8 °F 38.6 °F 28.4 °F 57% 29.95 in 5.0 mi NW 6.9 mph - N/A   Mostly Cloudy
2:00 PM 42 °F - 29 °F 47%  in 5 mi NW 6.9 mph - -   Haze
2:50 PM 37.4 °F 29.8 °F 32.0 °F 81% 29.95 in 2.8 mi NNE 11.5 mph - N/A Rain , Snow Light Rain
3:25 PM 35.6 °F 29.2 °F 32.0 °F 87% 29.98 in 2.5 mi NNE 8.1 mph - N/A Snow Light Snow
3:50 PM 33.8 °F 27.7 °F 32.0 °F 93% 29.98 in - North 6.9 mph - N/A Snow Light Snow
4:50 PM 32.0 °F 27.5 °F 32.0 °F 100% 30.01 in - NE 4.6 mph - N/A Snow Light Snow
5:00 PM 33 °F - 32 °F 93%  in 2 mi NE 4.6 mph - - Snow Light Snow
5:12 PM 32.0 °F - 32.0 °F 100% 30.01 in 1.1 mi ENE 2.3 mph - N/A Snow Snow
5:50 PM 32.0 °F - 32.0 °F 100% 30.01 in 1.1 mi East 2.3 mph - N/A Snow Light Snow
6:50 PM 32.0 °F - 32.0 °F 100% 30.01 in 1.1 mi Variable 2.3 mph - N/A Snow Light Snow
7:50 PM 32.0 °F - 32.0 °F 100% 30.01 in 2.5 mi Calm Calm - N/A Snow Light Snow
8:00 PM 32 °F - 32 °F 98%  in 2 mi Calm Calm - - Snow Light Snow
8:50 PM 32.0 °F - 32.0 °F 100% 30.01 in 2.5 mi Calm Calm - N/A Snow Light Snow
9:50 PM 32.0 °F - 32.0 °F 100% 30.01 in 2.5 mi Calm Calm - N/A Snow Light Snow
10:50 PM 32.0 °F - 32.0 °F 100% 30.01 in 2.5 mi South 1.2 mph - N/A Snow Light Snow
11:00 PM 32 °F - 32 °F 98%  in 2 mi South 1.2 mph - - Snow Light Snow
11:50 PM 32.0 °F - 32.0 °F 100% 30.01 in 2.5 mi East 2.3 mph - N/A Snow Light Snow